[[{"header":{"parameterUnit":"m.s-1","parameterCategory":1,"la1":30.2991,"la2":30.254,"lo1":-89.0895,"lo2":-89.0444,"dy":0.0017,"dx":0.0017,"nx":28,"ny":28,"refTime":"2024-10-03T09:00:00:Z","depth":0,"parameterNumber":2,"parameterNumberName":"U-component_of_WINDS"},"data":[0,0,0,0,0,0,0,0,0,0,0,0,0,0,0,0,0,0,0,0,0,0,0,0,0,0,0,0,0,0,0,0,0,0,0,0,0,0,0,0,0,0,0,0,0,0,0,0,0,0,0,0,0,0,0,0,0,0,0.9393,0.9394,0,0.9432,0.9432,0.9432,0.9477,0.9477,0.9478,0.9479,0.9514,0.9515,0.9515,0,0,0,0,0,0,0,0,0,0,0,0,0,0.9355,0.9355,0.9393,0.9394,0.9394,0.9432,0.9432,0.9433,0.9477,0.9477,0.9478,0.9479,0.9514,0.9514,0.9515,0,0,0,0,0,0,0,0,0,0,0,0,0,0.938,0.9355,0.9393,0.9421,0.9424,0.9431,0.9432,0.9433,0.9476,0.9477,0.9478,0.9479,0.9514,0.9514,0.9515,0.9498,0,0,0.9516,0.9517,0,0,0,0,0,0,0,0,0.9378,0.9381,0.9416,0.9419,0.9422,0.9451,0.9432,0.9454,0.9476,0.9456,0.9479,0.948,0.9492,0.9494,0.9499,0.9499,0.9501,0.9516,0.9517,0.9517,0.9517,0,0,0,0,0,0,0,0.9377,0.938,0.9408,0.9417,0.942,0.943,0.9435,0.9436,0.9468,0.9458,0.9461,0.9466,0.9494,0.9499,0.95,0.9501,0.9516,0.9517,0.9517,0.9517,0.9488,0.9487,0,0,0,0,0,0,0.9371,0.9378,0.9407,0.9409,0.9402,0.943,0.9435,0.944,0.9468,0.9473,0.9465,0.9467,0.9497,0.95,0.9502,0.9482,0.9517,0.9517,0.9518,0.9489,0.9487,0.9486,0,0,0,0,0,0,0.937,0.9373,0.9406,0.9395,0.94,0.943,0.9435,0.944,0.9445,0.9473,0.9478,0.9464,0.9498,0.9501,0.9498,0.9484,0.9518,0.9518,0.949,0.9488,0.9487,0.9443,0,0,0,0,0,0,0.9369,0.9373,0.9367,0.9394,0.94,0.9402,0.9434,0.9441,0.9447,0.9451,0.9474,0.9479,0.9499,0.9497,0.9499,0.9485,0.9518,0.9491,0.9489,0.9487,0.9446,0.944,0.9435,0,0,0,0,0,0.9367,0.9353,0.9367,0.937,0.9394,0.9401,0.9405,0.943,0.9445,0.9439,0.9457,0.9478,0.9486,0.9497,0.9499,0.9485,0.9492,0.949,0.9487,0.9448,0.9441,0.9435,0,0,0,0,0,0,0.9322,0.9357,0.9373,0.9367,0.9381,0.9409,0.9402,0.9422,0.9431,0.9434,0.9464,0.9469,0.9462,0.9473,0.9485,0.9469,0.9492,0.949,0.9461,0.9455,0.945,0.9446,0.9519,0,0,0,0,0,0.9311,0.9316,0.9346,0.9337,0.9344,0.9372,0.9376,0.9394,0.941,0.9415,0.9433,0.9446,0.9451,0.9454,0.9461,0.9448,0.9453,0.944,0.9435,0.943,0.9427,0.942,0.9414,0.9478,0.9478,0.9478,0,0,0.9289,0.9309,0.931,0.9329,0.9342,0.9344,0.9376,0.9378,0.9379,0.9415,0.9414,0.9427,0.9443,0.9435,0.9433,0.9445,0.9411,0.9427,0.9423,0.9423,0.9417,0.9411,0.9405,0.9477,0.9477,0.9477,0,0,0.925,0.9266,0.926,0.9273,0.9293,0.9312,0.931,0.9336,0.9346,0.9345,0.9372,0.9374,0.9383,0.9393,0.94,0.9364,0.9383,0.9366,0.9337,0.933,0.9325,0.932,0.9306,0.9301,0.9363,0.9363,0.9363,0,0.9219,0.9225,0.9255,0.9254,0.9261,0.9296,0.9289,0.93,0.932,0.9323,0.9337,0.9349,0.9363,0.9357,0.9348,0.9353,0.9351,0.9362,0.9323,0.9319,0.9315,0.9302,0.9297,0.9361,0.9361,0.9361,0.9361,0,0.9186,0.919,0.9183,0.9202,0.9209,0.9206,0.9233,0.9236,0.9254,0.927,0.9268,0.9286,0.9296,0.9297,0.9314,0.9293,0.93,0.9318,0.9341,0.9306,0.9294,0.9289,0.9357,0.9358,0.9359,0.9359,0,0,0.9117,0.9154,0.9151,0.916,0.9185,0.9188,0.9185,0.9197,0.9198,0.9211,0.9208,0.9215,0.9233,0.924,0.9258,0.9252,0.9221,0.9271,0.9272,0.926,0.9197,0.9182,0.9175,0.9235,0.9234,0.9233,0.9195,0,0.9081,0.908,0.9107,0.9098,0.9101,0.9133,0.9131,0.9145,0.9161,0.9165,0.9182,0.9186,0.9209,0.9213,0.9209,0.9226,0.9209,0.9229,0.9231,0.923,0.9223,0.9169,0.9153,0.9116,0.9191,0.919,0.9189,0,0.9038,0.905,0.9041,0.9066,0.9068,0.9066,0.9078,0.9082,0.9098,0.911,0.9118,0.914,0.9138,0.9161,0.9158,0.9172,0.9174,0.9182,0.9182,0.9181,0.9206,0.9165,0.9105,0.9099,0.9183,0.9183,0.9184,0,0.8986,0.9,0.8997,0.9004,0.9033,0.903,0.9042,0.906,0.9064,0.9075,0.9078,0.9087,0.9092,0.9098,0.9121,0.9137,0.9115,0.9141,0.9123,0.9122,0.9115,0.9114,0.9052,0.912,0.912,0.912,0.912,0,0.8942,0.8935,0.8974,0.8971,0.8964,0.8995,0.8986,0.9001,0.9017,0.9017,0.9046,0.9045,0.9077,0.9079,0.9097,0.909,0.9093,0.9101,0.9105,0.9097,0.9096,0.9097,0.91,0.9118,0.9119,0.9119,0.9119,0,0.8882,0.8908,0.8906,0.8935,0.8942,0.8935,0.8958,0.8956,0.8975,0.8974,0.8976,0.9003,0.9007,0.9032,0.9041,0.9053,0.9039,0.905,0.9034,0.9037,0.9017,0.9017,0.8951,0.8943,0.9018,0.9017,0.9017,0,0.8851,0.8846,0.8874,0.8877,0.8888,0.8892,0.8897,0.8927,0.8931,0.8949,0.8944,0.8951,0.8958,0.8963,0.8983,0.899,0.9,0.8976,0.9001,0.8992,0.8997,0.8996,0.8995,0.897,0.8969,0.8968,0.8968,0,0.8792,0.8805,0.8812,0.8824,0.883,0.884,0.8852,0.8852,0.8885,0.8887,0.8893,0.8898,0.8908,0.8914,0.8924,0.8935,0.8956,0.896,0.8956,0.8946,0.8936,0.8939,0.9017,0.8961,0.8962,0.8962,0.8963,0.8963,0.8744,0.8741,0.876,0.8767,0.878,0.879,0.8789,0.8808,0.8813,0.8824,0.8841,0.8844,0.8859,0.8876,0.8885,0.8886,0.8899,0.8893,0.8891,0.8889,0.8884,0.8938,0.8889,0.8889,0.8889,0.8889,0.889,0,0.8685,0.8699,0.8705,0.8721,0.8726,0.8748,0.8762,0.8764,0.8766,0.878,0.8786,0.8791,0.8797,0.8818,0.8825,0.8822,0.8832,0.8823,0.8822,0.8824,0.8873,0.8875,0.8815,0.8815,0.8815,0.8815,0.8815,0.8815,0.8654,0.865,0.8666,0.8668,0.8682,0.8685,0.8691,0.87,0.8711,0.8716,0.8721,0.8736,0.8752,0.8761,0.8766,0.8772,0.8772,0.876,0.8768,0.8814,0.8821,0.8827,0.8829,0.876,0.876,0.8719,0.8718,0.8718]},{"header":{"parameterUnit":"m.s-1","parameterCategory":1,"la1":30.2991,"la2":30.254,"lo1":-89.0895,"lo2":-89.0444,"dy":0.0017,"dx":0.0017,"nx":28,"ny":28,"refTime":"2024-10-03T09:00:00:Z","depth":0,"parameterNumber":3,"parameterNumberName":"V-component_of_WINDS"},"data":[0,0,0,0,0,0,0,0,0,0,0,0,0,0,0,0,0,0,0,0,0,0,0,0,0,0,0,0,0,0,0,0,0,0,0,0,0,0,0,0,0,0,0,0,0,0,0,0,0,0,0,0,0,0,0,0,0,0,1.0805,1.0805,0,1.0787,1.0787,1.0787,1.0774,1.0774,1.0774,1.0773,1.0754,1.0754,1.0754,0,0,0,0,0,0,0,0,0,0,0,0,0,1.0826,1.0826,1.0805,1.0805,1.0804,1.0787,1.0787,1.0787,1.0774,1.0774,1.0774,1.0773,1.0755,1.0754,1.0754,0,0,0,0,0,0,0,0,0,0,0,0,0,1.0813,1.0825,1.0805,1.0796,1.0795,1.0787,1.0787,1.0787,1.0774,1.0774,1.0773,1.0773,1.0755,1.0754,1.0754,1.0753,0,0,1.0752,1.0751,0,0,0,0,0,0,0,0,1.0814,1.0813,1.0797,1.0796,1.0795,1.0783,1.0787,1.0775,1.0774,1.0782,1.0773,1.0773,1.0764,1.0762,1.0759,1.0752,1.0751,1.0752,1.0751,1.0751,1.0751,0,0,0,0,0,0,0,1.0815,1.0813,1.0798,1.0797,1.0796,1.0792,1.079,1.0785,1.0774,1.0781,1.078,1.0778,1.0763,1.076,1.0759,1.0751,1.0752,1.0751,1.0751,1.075,1.0742,1.0742,0,0,0,0,0,0,1.0817,1.0814,1.0798,1.0797,1.0805,1.0792,1.079,1.0787,1.0774,1.0772,1.0778,1.0778,1.0761,1.076,1.0758,1.0756,1.0751,1.075,1.075,1.0742,1.0742,1.0742,0,0,0,0,0,0,1.0818,1.0816,1.0799,1.0805,1.0803,1.0792,1.0789,1.0787,1.0783,1.0772,1.077,1.0777,1.0761,1.0759,1.0754,1.0756,1.075,1.075,1.0742,1.0742,1.0742,1.0753,0,0,0,0,0,0,1.0819,1.0816,1.0816,1.0806,1.0803,1.0796,1.0789,1.0786,1.0783,1.0781,1.077,1.0768,1.0761,1.0755,1.0754,1.0755,1.0749,1.0741,1.0742,1.0742,1.0752,1.0754,1.0755,0,0,0,0,0,1.0819,1.082,1.0817,1.0815,1.0803,1.0796,1.0794,1.0786,1.0783,1.0782,1.0775,1.0769,1.0756,1.0755,1.0753,1.0754,1.0741,1.0742,1.0742,1.0752,1.0753,1.0754,0,0,0,0,0,0,1.0831,1.0819,1.0814,1.0812,1.0805,1.0794,1.0793,1.0788,1.0781,1.0781,1.077,1.0768,1.0764,1.0758,1.0758,1.0752,1.0748,1.0748,1.0756,1.0757,1.0758,1.0759,1.0749,0,0,0,0,0,1.0834,1.083,1.0819,1.0818,1.0814,1.0805,1.0801,1.0795,1.0788,1.0785,1.0777,1.077,1.0764,1.076,1.0754,1.0752,1.0749,1.0751,1.0752,1.0753,1.0753,1.075,1.0751,1.0743,1.0743,1.0743,0,0,1.0838,1.0831,1.0829,1.082,1.0814,1.081,1.0802,1.0798,1.0795,1.0784,1.0779,1.0773,1.0764,1.076,1.0758,1.0756,1.0755,1.0753,1.0754,1.0754,1.0751,1.0752,1.0752,1.0743,1.0743,1.0743,0,0,1.0845,1.0839,1.0837,1.0832,1.0823,1.0816,1.0816,1.0805,1.0801,1.0796,1.0788,1.0783,1.0774,1.0767,1.0763,1.0767,1.076,1.0765,1.077,1.0768,1.0768,1.0769,1.077,1.077,1.0765,1.0765,1.0765,0,1.0852,1.0845,1.0837,1.0833,1.0829,1.082,1.0817,1.0812,1.0802,1.0799,1.0796,1.0783,1.0777,1.0771,1.0772,1.0769,1.0767,1.0766,1.0769,1.0769,1.077,1.077,1.0771,1.0766,1.0766,1.0765,1.0765,0,1.0854,1.085,1.0849,1.084,1.0835,1.0833,1.0823,1.082,1.0814,1.0807,1.0802,1.0794,1.0786,1.0784,1.0778,1.0777,1.0776,1.0771,1.0766,1.0771,1.0772,1.0772,1.0766,1.0766,1.0766,1.0766,0,0,1.0867,1.0853,1.0853,1.0848,1.0838,1.0834,1.0831,1.0823,1.082,1.0813,1.0809,1.0801,1.0797,1.0792,1.0785,1.0783,1.0786,1.0779,1.0779,1.078,1.0783,1.0787,1.0787,1.0782,1.0782,1.0782,1.0784,0,1.0872,1.0865,1.0857,1.0853,1.0848,1.0839,1.0836,1.0829,1.0823,1.0818,1.081,1.0805,1.08,1.0797,1.0794,1.0786,1.0787,1.0786,1.0778,1.0778,1.078,1.0787,1.0791,1.0793,1.0784,1.0784,1.0784,0,1.0876,1.087,1.0865,1.0855,1.0853,1.085,1.0842,1.0838,1.0829,1.0825,1.0819,1.0812,1.0807,1.0803,1.0795,1.0795,1.0791,1.0787,1.0787,1.0785,1.0781,1.0786,1.0794,1.0794,1.0784,1.0784,1.0784,0,1.0885,1.0876,1.0872,1.0868,1.0856,1.0854,1.0849,1.0841,1.0836,1.0829,1.0826,1.0819,1.0815,1.0808,1.0799,1.0797,1.0793,1.0788,1.0788,1.0788,1.0787,1.0788,1.0795,1.0786,1.0786,1.0786,1.0786,0,1.0891,1.0888,1.0876,1.0873,1.087,1.0861,1.0858,1.0851,1.0844,1.0839,1.0831,1.0827,1.0816,1.081,1.0803,1.0797,1.0796,1.0791,1.0789,1.0792,1.0792,1.0789,1.0788,1.0786,1.0786,1.0786,1.0786,0,1.0901,1.0892,1.0887,1.0876,1.0874,1.0871,1.0862,1.0859,1.0852,1.0846,1.0845,1.0834,1.0827,1.0817,1.0807,1.0802,1.0798,1.0795,1.0801,1.0799,1.08,1.08,1.0805,1.0805,1.0796,1.0796,1.0797,0,1.0905,1.0902,1.0891,1.0888,1.0883,1.0878,1.0874,1.0864,1.086,1.085,1.0848,1.084,1.0834,1.0823,1.0814,1.0806,1.0802,1.0805,1.0801,1.0804,1.0802,1.0802,1.0801,1.0805,1.0805,1.0806,1.0806,0,1.0912,1.0908,1.0902,1.0895,1.089,1.0884,1.0878,1.0875,1.0864,1.086,1.0853,1.0848,1.0837,1.083,1.0821,1.0815,1.0808,1.0807,1.0806,1.0809,1.0812,1.081,1.0802,1.0807,1.0807,1.0807,1.0807,1.0806,1.0918,1.0916,1.0908,1.0902,1.0896,1.089,1.0886,1.0879,1.0873,1.0864,1.0859,1.0852,1.0843,1.083,1.0824,1.0818,1.0816,1.0815,1.0815,1.0815,1.0816,1.0813,1.0817,1.0817,1.0816,1.0816,1.0816,0,1.0925,1.0919,1.0914,1.0905,1.09,1.0895,1.0887,1.0883,1.0877,1.087,1.0864,1.0855,1.0848,1.0838,1.0829,1.0826,1.0823,1.0824,1.0824,1.0823,1.0819,1.082,1.0827,1.0827,1.0827,1.0827,1.0827,1.0827,1.0928,1.0923,1.0918,1.091,1.0904,1.0898,1.0894,1.0888,1.0882,1.0873,1.0867,1.0861,1.0852,1.0843,1.0835,1.0833,1.083,1.0832,1.0828,1.0824,1.0823,1.0822,1.0823,1.0831,1.0832,1.0833,1.0833,1.0833]}]]